TimeMST,TemperatureF,Dew PointF,Humidity,Sea Level PressureIn,VisibilityMPH,Wind Direction,Wind SpeedMPH,Gust SpeedMPH,PrecipitationIn,Events,Conditions,WindDirDegrees,DateUTC
12:53 AM,35.1,30.0,82,30.08,10.0,South,6.9,-,N/A,,Clear,170,2012-11-17 07:53:00
1:53 AM,34.0,30.9,89,30.07,10.0,SSE,6.9,-,N/A,,Clear,160,2012-11-17 08:53:00
2:53 AM,30.9,28.0,89,30.07,10.0,SE,4.6,-,N/A,,Clear,140,2012-11-17 09:53:00
3:53 AM,28.9,27.0,92,30.08,7.0,SSE,3.5,-,N/A,,Clear,150,2012-11-17 10:53:00
4:53 AM,28.9,27.0,92,30.09,6.0,Calm,Calm,-,N/A,,Clear,0,2012-11-17 11:53:00
5:53 AM,27.0,26.1,96,30.12,6.0,Calm,Calm,-,N/A,,Clear,0,2012-11-17 12:53:00
6:26 AM,26.6,24.8,93,30.06,4.0,NW,3.5,-,N/A,,Scattered Clouds,320,2012-11-17 13:26:00
6:28 AM,26.6,24.8,93,30.06,1.8,NW,4.6,-,N/A,,Scattered Clouds,320,2012-11-17 13:28:00
6:34 AM,26.6,24.8,93,30.06,0.8,Calm,Calm,-,N/A,,Mist,0,2012-11-17 13:34:00
6:44 AM,24.8,24.8,100,30.07,0.2,Calm,Calm,-,N/A,Fog,Light Freezing Fog,0,2012-11-17 13:44:00
6:53 AM,26.1,24.1,92,30.13,0.5,NW,4.6,-,N/A,Fog,Light Freezing Fog,320,2012-11-17 13:53:00
6:59 AM,26.6,24.8,93,30.08,2.0,NW,5.8,-,N/A,,Mostly Cloudy,320,2012-11-17 13:59:00
7:06 AM,26.6,24.8,93,30.08,5.0,NW,6.9,-,N/A,,Mostly Cloudy,320,2012-11-17 14:06:00
7:14 AM,26.6,26.6,100,30.08,6.0,NNW,5.8,-,N/A,,Scattered Clouds,330,2012-11-17 14:14:00
7:53 AM,30.0,27.0,88,30.14,7.0,NNW,6.9,-,N/A,,Clear,340,2012-11-17 14:53:00
8:53 AM,41.0,30.9,67,30.13,10.0,North,5.8,-,N/A,,Clear,350,2012-11-17 15:53:00
9:53 AM,48.9,32.0,52,30.12,10.0,NW,5.8,-,N/A,,Clear,320,2012-11-17 16:53:00
10:53 AM,57.9,32.0,37,30.10,10.0,NNW,5.8,-,N/A,,Clear,340,2012-11-17 17:53:00
11:53 AM,64.9,30.0,27,30.06,10.0,NNE,10.4,-,N/A,,Clear,20,2012-11-17 18:53:00
12:53 PM,66.9,28.0,23,30.04,10.0,North,10.4,-,N/A,,Clear,10,2012-11-17 19:53:00
1:53 PM,68.0,28.0,22,30.03,10.0,North,8.1,-,N/A,,Clear,360,2012-11-17 20:53:00
2:53 PM,66.9,28.0,23,30.04,10.0,NE,6.9,-,N/A,,Clear,40,2012-11-17 21:53:00
3:53 PM,63.0,28.0,27,30.07,10.0,ENE,4.6,-,N/A,,Clear,60,2012-11-17 22:53:00
4:53 PM,50.0,30.0,46,30.10,10.0,SSE,4.6,-,N/A,,Clear,150,2012-11-17 23:53:00
5:53 PM,45.0,30.0,56,30.12,10.0,SSE,6.9,-,N/A,,Clear,160,2012-11-18 00:53:00
6:53 PM,41.0,30.0,65,30.13,10.0,SSE,6.9,-,N/A,,Clear,160,2012-11-18 01:53:00
7:53 PM,39.9,28.9,65,30.13,10.0,SSE,4.6,-,N/A,,Clear,150,2012-11-18 02:53:00
8:53 PM,39.0,28.9,67,30.11,10.0,Calm,Calm,-,N/A,,Clear,0,2012-11-18 03:53:00
9:53 PM,36.0,28.0,73,30.09,10.0,Calm,Calm,-,N/A,,Clear,0,2012-11-18 04:53:00
10:53 PM,34.0,26.1,73,30.07,10.0,Calm,Calm,-,N/A,,Clear,0,2012-11-18 05:53:00
11:53 PM,33.1,26.1,75,30.04,10.0,Calm,Calm,-,N/A,,Clear,0,2012-11-18 06:53:00